Zurück zum Katalog

GRUS-3D

AktivWissenschaftSSO
NORAD 69919·PAYLOAD·🇫🇮 Finland

Gestartet Jul 7, 2026 von Vandenberg Space Force Base

Loading…

Nächste Überflüge (nächste 24 Stunden)

TLE

AktuellSource: Space-Track

Epoche: Sep 13, 2026, 16:28 UTC

1 69919U 26156BC  26256.68613588  .00000769  00000-0  81442-4 0  9995
2 69919  97.7441 155.9974 0005760 292.3925  67.6683 14.91954625 10191

Verfolge GRUS-3D in Echtzeit mit AllMySat

Download on the App Store